Regional Weather Roundup
Issued by NWS

Home | Current Version | Previous Version | Graphics & Text | Print | Product List | Glossary On
Versions: 1 2 3 4 5 6 7 8 9 10 11 12 13 14 15 16 17 18 19 20 21 22 23 24 25 26 27 28 29 30 31 32 33 34 35 36 37 38 39 40 41 42 43 44 45 46 47 48 49 50
000
ASUS43 KTOP 022059
RWRKS

WEATHER ROUNDUP FOR KANSAS
NATIONAL WEATHER SERVICE GOODLAND KS
400 PM CDT SUN AUG 02 2015

NOTE:  "FAIR" INDICATES FEW OR NO CLOUDS BELOW 12,000 FEET WITH NO
SIGNIFICANT WEATHER AND/OR OBSTRUCTIONS TO VISIBILITY.

KSZ001>006-013>018-027>032-041>047-022200-
NORTHWEST KANSAS

CITY           SKY/WX    TMP DP  RH WIND       PRES   REMARKS
GOODLAND       SUNNY     94  45  18 S8G17     29.97F
HAYS           SUNNY     93  64  38 S3        29.89F HX  95
HILL CITY      SUNNY     96  63  33 SW7       29.89F HX  97
RUSSELL        MOSUNNY   96  64  34 S9        29.87F HX  98
$$

KSZ061>065-074>080-084>089-022200-
SOUTHWEST KANSAS

CITY           SKY/WX    TMP DP  RH WIND       PRES   REMARKS
DODGE CITY     SUNNY     91  61  36 S9        29.93F
ELKHART          N/A     89  66  46 SE7         N/A
GARDEN CITY    SUNNY     90  63  40 SE10      29.94F
GREAT BEND     PTSUNNY   91  68  46 S12G20    29.89F HX  95
LIBERAL        SUNNY     91  66  43 S7        29.93F
$$

KSZ066>073-081>083-090>101-022200-
SOUTHEAST KANSAS

CITY           SKY/WX    TMP DP  RH WIND       PRES   REMARKS
CHANUTE        MOSUNNY   93  64  38 SW17G25   29.91F
COFFEYVILLE    SUNNY     94  64  37 SW13      29.90F HX  95
HUTCHINSON     MOSUNNY   91  69  48 S12       29.91F HX  96
MEDICINE LODGE   N/A     90  69  50 S12       29.90F
NEWTON         MOSUNNY   90  66  45 SW12G21   29.94S
PARSONS        SUNNY     92  64  39 SW16G24   29.92F
WICHITA INTL   SUNNY     90  68  48 S16       29.90F
WICHITA JABRA  MOSUNNY   90  68  48 S15G23    29.91S
WINFIELD       SUNNY     89  70  53 S13       29.92F
$$

KSZ007>012-019>026-033>040-048>060-102>105-022200-
NORTHEAST KANSAS

CITY           SKY/WX    TMP DP  RH WIND       PRES   REMARKS
CONCORDIA      SUNNY     96  62  32 W5        29.86F HX  97
EMPORIA        SUNNY     90  69  50 SW9       29.90F
LAWRENCE       SUNNY     92  68  45 SW9       29.87F HX  96
MANHATTAN      SUNNY     95  69  42 SW9       29.86F HX 100
OLATHE IND     SUNNY     93  65  39 SW12G21   29.89F HX  95
OLATHE EXE     SUNNY     91  65  41 SW14G20   29.88F
SALINA         MOSUNNY   96  69  41 S9        29.87F HX 102
TOPEKA BILLARD SUNNY     92  69  47 SW10G17   29.86F HX  97
TOPEKA FORBES  MOSUNNY   94  69  44 SW10      29.88F HX  99
$$


USA.gov is the U.S. government's official web portal to all federal, state and local government web resources and services.